Regional Weather Roundup
Issued by NWS Cleveland, OH

Home | Current Version | Previous Version | Graphics & Text | Print | Product List | Glossary On
Versions: 1 2 3 4 5 6 7 8 9 10 11 12 13 14 15 16 17 18 19 20 21 22 23 24 25 26 27 28 29 30 31 32 33 34 35 36 37 38 39 40 41 42 43 44 45 46 47 48 49 50
000
ASUS41 KCLE 262010
RWRCLE
OHIO REGIONAL WEATHER ROUNDUP
NATIONAL WEATHER SERVICE CLEVELAND, OH
400 PM EDT WED APR 26 2017

NOTE: "FAIR" INDICATES FEW OR NO CLOUDS BELOW 12,000 FEET WITH NO
SIGNIFICANT WEATHER AND/OR OBSTRUCTIONS TO VISIBILITY.

OHZ001>008-015>018-024>027-034-035-043-044-262100-
   NORTHWEST OHIO

CITY           SKY/WX    TMP DP  RH WIND       PRES   REMARKS
DEFIANCE       SUNNY     81  56  42 S22G35    29.53F
FINDLAY        SUNNY     86  48  26 S21G31    29.55F
TOLEDO EXPRESS SUNNY     84  50  30 S18G31    29.53F
TOLEDO EXEC    SUNNY     83  56  39 S21G32    29.54F
LIMA           SUNNY     82  55  39 S25G31    29.56F
$$

OHZ009>014-019>023-028>033-038-089-262100-
   NORTHEAST OHIO

CITY           SKY/WX    TMP DP  RH WIND       PRES   REMARKS
CLE-HOPKINS    PTSUNNY   81  55  40 SE18G28   29.63F
CLE-LAKEFRONT  MOSUNNY   80  54  40 S18G26    29.59F
CUY CO. ARPT   PTSUNNY   81  59  47 S16       29.63F
LORAIN-ELYRIA  SUNNY     79  54  41 S20G30    29.60F
ASHTABULA      MOSUNNY   76  56  49 S12G20    29.68F
AKRON-CANTON   MOSUNNY   79  57  46 S16       29.67F
WOOSTER        SUNNY     77  58  51 S17G25    29.65F
MANSFIELD      SUNNY     81  52  36 S18       29.63F
YOUNGSTOWN     CLOUDY    77  56  48 SE9G22    29.69F
$$

OHZ042-051>053-060>062-070>072-077>081-262100-
  SOUTHWEST OHIO

CITY           SKY/WX    TMP DP  RH WIND       PRES   REMARKS
CINC-COVINGTON MOSUNNY   80  62  54 S21G26    29.61F
CINC-LUNKEN    SUNNY     80  63  55 S13G22    29.61F
HAMILTON       SUNNY     84  60  44 S13G20    29.61F
DAYTON         MOSUNNY   81  57  43 S20G26    29.60F
WRIGHT-PAT AFB SUNNY     83  56  40 S18G24    29.60F
DAYTON GENERAL SUNNY     80  58  46 S16G28    29.61S
WILMINGTON     SUNNY     79  56  45 S20G28    29.62F
$$

OHZ036-037-039>041-045>050-054>059-063>069-073>076-082>088-262100-
  CENTRAL AND SOUTHEAST OHIO

CITY           SKY/WX    TMP DP  RH WIND       PRES   REMARKS
COLUMBUS       MOSUNNY   83  50  31 S17G24    29.63F
OSU AIRPORT    SUNNY     82  54  37 S18G31    29.61F
BOLTON FIELD   SUNNY     64  54  68 S20G29    29.63F
RICKENBACK AFB SUNNY     82  53  35 S20       29.63F
NEWARK         SUNNY     82  52  35 S13G25    29.64F
MARION         SUNNY     82  51  34 S23G30    29.61F
LANCASTER      SUNNY     85  51  31 S15       29.65F
ZANESVILLE     SUNNY     80  54  40 S9        29.67F
NEW PHILLY     NOT AVBL
$$




USA.gov is the U.S. government's official web portal to all federal, state and local government web resources and services.